Вернуться в каталог

ONEWEB-0364

АктивенСвязьPO
NORAD 49290·PAYLOAD·🇬🇧 United Kingdom

Запущен Oct 14, 2021 с Vostochny Cosmodrome

Loading…

Ближайшие Пролёты (ближайшие 24 часа)

TLE

СвежийSource: CelesTrak SupGP

Эпоха: Sep 14, 2026, 19:55 UTC

1 49290C 21090M   26257.83005048  .00002423  00000+0  59663-2 0  2574
2 49290  87.9144 256.5646 0001994  88.6949 305.0371 13.20772341    10

Отслеживайте ONEWEB-0364 в реальном времени с AllMySat

Download on the App Store